Voltar ao catálogo

THOR ABLESTAR DEB

AtivoLEO
NORAD 252·DEBRIS·🇺🇸 United States

Lançado Jun 29, 1961 de Cape Canaveral Space Force Station

Loading…

Próximas Passagens (próximas 24 horas)

TLE

AtualizadoSource: Space-Track

Época: Sep 7, 2026, 07:33 UTC

1 00252U 61015CD  26250.31485939  .00000025  00000-0  96215-4 0  9993
2 00252  67.0810 352.7248 0051377 146.8728 246.5672 13.77867287262641

Acompanhe THOR ABLESTAR DEB em tempo real com AllMySat

Download on the App Store